Weather History for CWEU - May, 2013

Change the Weather History Date:

Friday, May 10, 2013

  Actual Average Record
Temperature  
Mean Temperature -6 °F -  
Max Temperature 1 °F 25 °F 32 °F (2004)
Min Temperature -14 °F 14 °F -18 °F (2001)
Degree Days  
Heating Degree Days 72    
Moisture  
Dew Point -15 °F    
Average Humidity 59    
Maximum Humidity 66    
Minimum Humidity 44    
Precipitation  
Precipitation 0.00 in 0.01 in - ()
Sea Level Pressure  
Sea Level Pressure 29.87 in    
Wind  
Wind Speed 4 mph ()    
Max Wind Speed 12 mph    
Max Gust Speed -    
Visibility 15.0 miles    
Events Snow    
Averages and records for this station are not official NWS values.
T = Trace of Precipitation, MM = Missing Value Source: Averaged Metar Reports

Daily Weather History Graph

Daily Weather History Graph

Search for Another Location

Airport or City:

Trip Planner

Search our weather history database for the weather conditions in past years. The results will help you decide how hot, cold, wet, or windy it might be!

Date:

Astronomy

Dec. 31, 1969 Rise Set
Actual Time Sun does not rise Sun does not rise
Civil Twilight Sun does not rise Sun does not rise
Nautical Twilight Sun does not rise Sun does not rise
Astronomical Twilight Sun does not rise Sun does not rise
Moon No Moon Rise No Moon Set
Length of Visible Light 24h 00m
Length of Day
24h 00m
New Moon, 0% of the Moon is Illuminated
May 10
New Moon
May 17
First Quarter
May 24
Full
May 31
Last Quarter
Jun 8
New

Hourly Weather History & Observations

Time (CDT) Temp. Windchill Dew Point Humidity Pressure Visibility Wind Dir Wind Speed Gust Speed Precip Events Conditions
1:00 AM -11 °F - -20 °F 50% 29.86 in 15 mi SW 3.5 mph - -  
1:00 AM -11.2 °F -24.8 °F -20.2 °F 64% 29.86 in 15.0 mi West 5.8 mph - N/A   Clear
2:00 AM -7.6 °F -22.1 °F -18.4 °F 59% 29.85 in 15.0 mi WSW 6.9 mph - N/A   Clear
3:00 AM -11.2 °F -24.8 °F -20.2 °F 64% 29.85 in 15.0 mi SW 5.8 mph - N/A   Clear
4:00 AM -11.2 °F -23.0 °F -20.2 °F 64% 29.85 in 15.0 mi NW 4.6 mph - N/A   Clear
5:00 AM -13.0 °F -22.7 °F -22.0 °F 64% 29.86 in 15.0 mi WSW 3.5 mph - N/A   Clear
6:00 AM -11.2 °F -23.0 °F -20.2 °F 64% 29.85 in 15.0 mi South 4.6 mph - N/A   Clear
7:00 AM -11 °F - -21 °F 46% 29.86 in 15 mi South 3.5 mph - -  
7:00 AM -11.2 °F -20.6 °F -20.2 °F 64% 29.86 in 15.0 mi South 3.5 mph - N/A   Clear
8:00 AM -7.6 °F - -18.4 °F 59% 29.85 in 15.0 mi West 2.3 mph - N/A   Clear
9:00 AM -4.0 °F -12.4 °F -14.8 °F 60% 29.84 in 15.0 mi SSW 3.5 mph - N/A   Clear
10:00 AM -4.0 °F -14.6 °F -14.8 °F 60% 29.84 in 15.0 mi South 4.6 mph - N/A Snow Low Drifting Snow
12:00 PM -2.2 °F -18.9 °F -13.0 °F 60% 29.84 in 15.0 mi West 10.4 mph - N/A Snow Low Drifting Snow
1:00 PM -1 °F - -12 °F 45% 29.85 in 15 mi West 11.5 mph - - Snow Low Drifting Snow
1:00 PM -0.4 °F -17.6 °F -11.2 °F 60% 29.85 in 15.0 mi West 11.5 mph - N/A Snow Low Drifting Snow
2:00 PM -0.4 °F -16.7 °F -11.2 °F 60% 29.85 in 15.0 mi West 10.4 mph - N/A Snow Low Drifting Snow
3:00 PM -0.4 °F -13.4 °F -11.2 °F 60% 29.86 in 15.0 mi WNW 6.9 mph - N/A Snow Low Drifting Snow
4:00 PM -0.4 °F -12.0 °F -9.4 °F 66% 29.87 in 15.0 mi NW 5.8 mph - N/A Snow Low Drifting Snow
5:00 PM -0.4 °F - -9.4 °F 66% 29.88 in 15.0 mi NW 2.3 mph - N/A   Mostly Cloudy
6:00 PM -0.4 °F - -11.2 °F 60% 29.89 in 15.0 mi SE 2.3 mph - N/A   Mostly Cloudy
7:00 PM 1 °F - -10 °F 44% 29.90 in 15 mi WSW 3.5 mph - -   Scattered Clouds
7:00 PM 1.4 °F -6.2 °F -9.4 °F 61% 29.90 in 15.0 mi West 3.5 mph - N/A   Mostly Cloudy
8:00 PM -2.2 °F -10.4 °F -11.2 °F 66% 29.92 in 15.0 mi North 3.5 mph - N/A   Mostly Cloudy
9:00 PM -2.2 °F - -13.0 °F 60% 29.93 in 15.0 mi Calm Calm - N/A   Mostly Cloudy
10:00 PM -5.8 °F - -16.6 °F 60% 29.94 in 15.0 mi Calm Calm - N/A   Mostly Cloudy